Location: Étavigny
(49.1201°N, 2.9800°E)
Time: 22:46:01
(UTC+00:00)

Cosmos 1844 Rocket - Pass Details

Date: 28 January 2023
Orbit: 825 x 843 km, 71.0° (Epoch: 29 March)

Event Time Altitude Azimuth Distance (km) Brightness Sun altitude
Rises 17:40:15 0° 335° (NNW) 3,380 6.0 -10.3°
Reaches altitude 10° 17:43:18 10° 351° (N) 2,441 5.0 -10.8°
Maximum altitude 17:47:32 22° 41° (NE) 1,758 3.9 -11.5°
Enters shadow 17:50:08 16° 76° (ENE) 2,038 4.0 -11.9°
